Weather History for Kansas City International, MO

Change the Weather History Date:

Monday, February 18, 2013

  Actual Average Record
Temperature  
Mean Temperature 42 °F 34 °F  
Max Temperature 58 °F 44 °F 74 °F (1930)
Min Temperature 26 °F 25 °F -7 °F (1903)
Degree Days  
Heating Degree Days 23 31  
Month to date heating degree days 514 597  
Since 1 July heating degree days 3341 3761  
Cooling Degree Days 0 0  
Month to date cooling degree days 0 0  
Year to date cooling degree days 0 0  
Moisture  
Dew Point 28 °F    
Average Humidity 54    
Maximum Humidity 70    
Minimum Humidity 38    
Precipitation  
Precipitation T in 0.06 in 1.43 in (1955)
Month to date precipitation 0.41 0.90  
Year to date precipitation 1.44 1.97  
Snow  
Snow 0.00 in 0.20 in 9.80 in (1926)
Month to date snowfall 0.2 3.8  
Since 1 July snowfall 4.9 14.6  
Snow Depth 0.00 in    
Sea Level Pressure  
Sea Level Pressure 29.73 in    
Wind  
Wind Speed 19 mph (WNW)    
Max Wind Speed 30 mph    
Max Gust Speed 44 mph    
Visibility 10 miles    
Events Rain    
T = Trace of Precipitation, MM = Missing Value Source: NWS Daily Summary

Daily Weather History Graph

Daily Weather History Graph

Search for Another Location

Airport:

Trip Planner

Search our weather history database for the weather conditions in past years. The results will help you decide how hot, cold, wet, or windy it might be!

Date:

Astronomy

Feb. 18, 2013 Rise Set
Actual Time 7:06 AM CST 5:59 PM CST
Civil Twilight 6:39 AM CST 6:26 PM CST
Nautical Twilight 6:08 AM CST 6:58 PM CST
Astronomical Twilight 5:36 AM CST 7:29 PM CST
Moon 11:47 AM CST (2/18) 1:46 AM CST (2/18)
Length of Visible Light 11h 47m
Length of Day
10h 53m
First Quarter, 58% of the Moon is Illuminated
Feb 18
First Quarter
Feb 25
Full
Mar 4
Last Quarter
Mar 11
New
Mar 19
First Quarter

Hourly Weather History & Observations

Time (CST) Temp. Windchill Dew Point Humidity Pressure Visibility Wind Dir Wind Speed Gust Speed Precip Events Conditions
12:53 AM 54.0 °F - 28.9 °F 38% 29.62 in 10.0 mi South 24.2 mph 32.2 mph N/A   Scattered Clouds
1:53 AM 53.1 °F - 28.9 °F 40% 29.59 in 10.0 mi South 23.0 mph 32.2 mph N/A   Partly Cloudy
2:53 AM 52.0 °F - 30.0 °F 43% 29.55 in 10.0 mi South 21.9 mph - N/A   Partly Cloudy
3:53 AM 53.1 °F - 30.9 °F 43% 29.53 in 10.0 mi South 20.7 mph 34.5 mph N/A   Partly Cloudy
4:53 AM 52.0 °F - 33.1 °F 49% 29.53 in 10.0 mi South 19.6 mph 29.9 mph N/A   Partly Cloudy
5:53 AM 52.0 °F - 35.1 °F 53% 29.54 in 10.0 mi South 19.6 mph 26.5 mph N/A   Scattered Clouds
6:53 AM 52.0 °F - 37.0 °F 57% 29.54 in 10.0 mi SSW 17.3 mph - N/A   Mostly Cloudy
7:53 AM 52.0 °F - 39.9 °F 63% 29.55 in 10.0 mi South 17.3 mph 25.3 mph N/A   Mostly Cloudy
8:53 AM 53.1 °F - 42.1 °F 66% 29.55 in 10.0 mi SSW 20.7 mph 26.5 mph N/A   Mostly Cloudy
9:53 AM 55.9 °F - 43.0 °F 62% 29.54 in 10.0 mi SSW 18.4 mph 33.4 mph N/A   Mostly Cloudy
10:44 AM 48.2 °F - 33.8 °F 58% 29.56 in 10.0 mi NW 17.3 mph 26.5 mph N/A   Mostly Cloudy
10:53 AM 46.0 °F 38.5 °F 32.0 °F 58% 29.57 in 9.0 mi NNW 19.6 mph 26.5 mph N/A   Overcast
11:53 AM 39.9 °F 30.2 °F 33.1 °F 77% 29.63 in 10.0 mi North 20.7 mph 27.6 mph 0.00 in Rain Light Rain
12:53 PM 39.9 °F 30.8 °F 33.1 °F 77% 29.65 in 10.0 mi NNW 18.4 mph 27.6 mph 0.00 in Rain Light Rain
1:53 PM 42.1 °F 32.8 °F 30.0 °F 62% 29.67 in 10.0 mi NNW 21.9 mph 36.8 mph 0.00 in   Overcast
2:43 PM 39.2 °F 28.3 °F 30.2 °F 70% 29.69 in 10.0 mi NW 25.3 mph 36.8 mph N/A   Overcast
2:53 PM 37.9 °F 26.3 °F 28.0 °F 68% 29.72 in 10.0 mi NNW 26.5 mph 38.0 mph N/A   Overcast
3:53 PM 36.0 °F 24.2 °F 26.1 °F 67% 29.78 in 10.0 mi NNW 24.2 mph 38.0 mph N/A   Mostly Cloudy
4:53 PM 35.1 °F 23.5 °F 21.9 °F 59% 29.82 in 10.0 mi NNW 21.9 mph 35.7 mph N/A   Mostly Cloudy
5:16 PM 35.6 °F 25.5 °F 19.4 °F 52% 29.84 in 10.0 mi NW 17.3 mph 35.7 mph N/A   Mostly Cloudy
5:53 PM 34.0 °F 21.8 °F 19.9 °F 56% 29.88 in 10.0 mi NW 23.0 mph 33.4 mph N/A   Mostly Cloudy
6:53 PM 30.9 °F 19.8 °F 17.1 °F 57% 29.94 in 10.0 mi NNW 16.1 mph 26.5 mph N/A   Partly Cloudy
7:53 PM 28.9 °F 18.2 °F 16.0 °F 58% 29.99 in 10.0 mi NW 13.8 mph 24.2 mph N/A   Partly Cloudy
8:53 PM 28.9 °F 17.7 °F 15.1 °F 56% 30.01 in 10.0 mi NW 15.0 mph 21.9 mph N/A   Clear
9:53 PM 28.0 °F 18.1 °F 15.1 °F 58% 30.03 in 10.0 mi NW 11.5 mph 19.6 mph N/A   Clear
10:53 PM 28.0 °F 17.5 °F 14.0 °F 56% 30.07 in 10.0 mi NW 12.7 mph 19.6 mph N/A   Clear
11:53 PM 26.1 °F 16.8 °F 15.1 °F 63% 30.09 in 10.0 mi WNW 9.2 mph - N/A   Clear